Hourly Data Report for April 28, 2017

OTTAWA INTL A
ONTARIO

45°19'00.000" N
75°40'00.000" W
114.90 m
6106001
71628
YOW

Download Data

Hourly Data (April 2017)
Hourly Data Report for April 28, 2017
TIME
LST
Temp Definition
°C
Dew Point Definition
°C
Rel Hum Definition
%
Precip. Amount Definition
mm

Wind Dir Definition
10's deg

Wind Spd Definition
km/h
Visibility Definition
km
Stn Press Definition
kPa
Hmdx Definition


Wind Chill Definition


Weather Definition


00:00 17.4 16.9 97   22 33 3.2 99.37     Thunderstorms,Moderate Rain Showers, Fog
01:00 16.2 16.1 99   14 11 12.9 99.21     Rain
02:00 15.9 15.8 99   17 10 24.1 99.31     LegendNANA
03:00 16.1 15.6 97   19 19 16.1 99.36     LegendNANA
04:00 15.8 15.3 97   20 21 16.1 99.48     Mostly Cloudy
05:00 13.9 10.7 81   30 26 24.1 99.63     LegendNANA
06:00 12.5 11.1 91   27 15 24.1 99.79     LegendNANA
07:00 12.1 8.2 77   27 21 24.1 99.92     Mostly Cloudy
08:00 13.8 8.3 69   24 21 24.1 99.99     LegendNANA
09:00 14.4 6.3 58   23 30 24.1 100.04     LegendNANA
10:00 15.2 5.8 53   23 28 24.1 100.09     Mainly Clear
11:00 15.7 6.0 52   23 29 24.1 100.13     LegendNANA
12:00 16.8 5.5 47   24 22 24.1 100.09     LegendNANA
13:00 17.2 6.5 49   23 22 24.1 100.05     Mostly Cloudy
14:00 17.7 6.7 48   20 21 24.1 100.08     LegendNANA
15:00 19.1 7.3 46   19 18 24.1 99.99     LegendNANA
16:00 18.9 5.5 41   22 29 24.1 99.99     Mainly Clear
17:00 18.0 5.7 44   20 23 24.1 99.98     LegendNANA
18:00 17.0 5.1 45   20 22 24.1 100.03     LegendNANA
19:00 15.8 4.9 48   21 17 24.1 100.01     Mainly Clear
20:00 14.5 5.1 53   21 14 24.1 100.06     LegendNANA
21:00 13.1 6.3 63   21 11 24.1 100.05     LegendNANA
22:00 13.1 6.7 65   20 7 24.1 99.99     Mainly Clear
23:00 13.0 7.5 69   19 12 24.1 99.98     LegendNANA

Notes on Data Quality.

Legend

  • E = Estimated
  • M = Missing
  • NA = Not Available*
  • [empty] = Indicates an unobserved value
Date modified: